TimeCST,TemperatureF,Dew PointF,Humidity,Sea Level PressureIn,VisibilityMPH,Wind Direction,Wind SpeedMPH,Gust SpeedMPH,PrecipitationIn,Events,Conditions,WindDirDegrees,DateUTC
12:15 AM,23.0,23.0,100,30.08,0.2,WNW,4.6,-,N/A,Fog,Light Freezing Fog,300,2012-11-27 06:15:00
12:35 AM,23.0,23.0,100,30.08,0.5,WNW,6.9,-,N/A,Fog,Light Freezing Fog,300,2012-11-27 06:35:00
12:55 AM,23.0,23.0,100,30.08,0.8,NW,8.1,-,N/A,,Overcast,310,2012-11-27 06:55:00
1:15 AM,21.2,21.2,100,30.08,0.8,NW,5.8,-,N/A,,Overcast,310,2012-11-27 07:15:00
1:35 AM,19.4,19.4,100,30.07,0.5,Calm,Calm,-,N/A,Fog,Light Freezing Fog,0,2012-11-27 07:35:00
1:55 AM,19.4,19.4,100,30.06,0.2,WNW,3.5,-,N/A,Fog,Light Freezing Fog,300,2012-11-27 07:55:00
2:15 AM,19.4,19.4,100,30.06,0.2,WNW,3.5,-,N/A,Fog,Light Freezing Fog,290,2012-11-27 08:15:00
2:35 AM,17.6,17.6,100,30.06,0.5,West,4.6,-,N/A,Fog,Light Freezing Fog,260,2012-11-27 08:35:00
2:55 AM,17.6,17.6,100,30.06,0.2,West,6.9,-,N/A,Fog,Light Freezing Fog,260,2012-11-27 08:55:00
3:15 AM,17.6,17.6,100,30.06,0.2,West,6.9,-,N/A,Fog,Light Freezing Fog,260,2012-11-27 09:15:00
3:35 AM,15.8,15.8,100,30.05,0.2,Calm,Calm,-,N/A,Fog,Light Freezing Fog,0,2012-11-27 09:35:00
3:55 AM,15.8,15.8,100,30.05,0.5,NW,3.5,-,N/A,Fog,Light Freezing Fog,310,2012-11-27 09:55:00
4:35 AM,14.0,14.0,100,30.06,0.8,North,4.6,-,N/A,,Overcast,10,2012-11-27 10:35:00
4:55 AM,14.0,14.0,100,30.05,0.2,Calm,Calm,-,N/A,Fog,Light Freezing Fog,0,2012-11-27 10:55:00
5:15 AM,14.0,14.0,100,30.05,0.2,West,4.6,-,N/A,Fog,Light Freezing Fog,270,2012-11-27 11:15:00
5:55 AM,15.8,15.8,100,30.05,0.2,West,3.5,-,N/A,Fog,Light Freezing Fog,280,2012-11-27 11:55:00
6:15 AM,14.0,14.0,100,30.05,0.8,WSW,4.6,-,N/A,,Overcast,250,2012-11-27 12:15:00
6:35 AM,14.0,14.0,100,30.05,1.2,Calm,Calm,-,N/A,,Overcast,0,2012-11-27 12:35:00
6:55 AM,15.8,15.8,100,30.06,0.5,West,4.6,-,N/A,Fog,Light Freezing Fog,260,2012-11-27 12:55:00
7:15 AM,14.0,14.0,100,30.06,0.5,West,3.5,-,N/A,Fog,Light Freezing Fog,270,2012-11-27 13:15:00
7:35 AM,14.0,14.0,100,30.06,1.2,West,5.8,-,N/A,,Overcast,270,2012-11-27 13:35:00
7:55 AM,15.8,15.8,100,30.06,3.0,Calm,Calm,-,N/A,,Overcast,0,2012-11-27 13:55:00
8:15 AM,15.8,15.8,100,30.06,3.0,West,5.8,-,N/A,,Overcast,260,2012-11-27 14:15:00
8:35 AM,15.8,15.8,100,30.07,0.2,WSW,4.6,-,N/A,Fog,Light Freezing Fog,250,2012-11-27 14:35:00
8:55 AM,15.8,15.8,100,30.07,0.2,WSW,5.8,-,N/A,Fog,Light Freezing Fog,250,2012-11-27 14:55:00
9:15 AM,15.8,15.8,100,30.07,0.2,West,6.9,-,N/A,Fog,Light Freezing Fog,270,2012-11-27 15:15:00
9:35 AM,17.6,17.6,100,30.08,0.5,West,5.8,-,N/A,Fog,Light Freezing Fog,270,2012-11-27 15:35:00
9:55 AM,17.6,17.6,100,30.09,3.0,West,4.6,-,N/A,,Overcast,280,2012-11-27 15:55:00
10:15 AM,17.6,17.6,100,30.10,8.0,NNW,5.8,-,N/A,,Overcast,330,2012-11-27 16:15:00
10:35 AM,17.6,17.6,100,30.09,10.0,West,4.6,-,N/A,Snow,Light Snow,280,2012-11-27 16:35:00
10:55 AM,19.4,19.4,100,30.10,10.0,Calm,Calm,-,N/A,,Overcast,0,2012-11-27 16:55:00
11:15 AM,19.4,19.4,100,30.10,10.0,West,6.9,-,N/A,,Mostly Cloudy,260,2012-11-27 17:15:00
11:35 AM,21.2,21.2,100,30.11,10.0,NW,6.9,-,N/A,,Overcast,320,2012-11-27 17:35:00
11:55 AM,19.4,19.4,100,30.11,10.0,NNW,6.9,-,N/A,,Overcast,330,2012-11-27 17:55:00
12:15 PM,21.2,21.2,100,30.11,10.0,WNW,6.9,-,N/A,,Overcast,300,2012-11-27 18:15:00
12:35 PM,23.0,23.0,100,30.11,10.0,WNW,9.2,-,N/A,,Overcast,300,2012-11-27 18:35:00
12:55 PM,23.0,23.0,100,30.10,10.0,WNW,10.4,-,N/A,,Overcast,300,2012-11-27 18:55:00
1:15 PM,24.8,24.8,100,30.11,10.0,NW,8.1,-,N/A,,Overcast,310,2012-11-27 19:15:00
1:35 PM,24.8,24.8,100,30.10,10.0,WNW,9.2,-,N/A,,Overcast,290,2012-11-27 19:35:00
1:55 PM,23.0,23.0,100,30.10,10.0,NW,10.4,-,N/A,,Overcast,320,2012-11-27 19:55:00
2:15 PM,23.0,23.0,100,30.10,10.0,NW,8.1,-,N/A,,Overcast,310,2012-11-27 20:15:00
2:35 PM,23.0,23.0,100,30.11,10.0,WNW,11.5,-,N/A,,Overcast,300,2012-11-27 20:35:00
2:55 PM,23.0,23.0,100,30.11,10.0,NW,8.1,-,N/A,,Overcast,320,2012-11-27 20:55:00
3:15 PM,23.0,23.0,100,30.11,10.0,NW,10.4,-,N/A,,Overcast,320,2012-11-27 21:15:00
3:35 PM,23.0,23.0,100,30.11,10.0,NW,11.5,-,N/A,,Overcast,310,2012-11-27 21:35:00
3:55 PM,23.0,23.0,100,30.13,10.0,NNW,9.2,-,N/A,,Overcast,330,2012-11-27 21:55:00
4:15 PM,23.0,23.0,100,30.14,10.0,WNW,8.1,-,N/A,,Overcast,300,2012-11-27 22:15:00
4:35 PM,23.0,23.0,100,30.14,10.0,WNW,6.9,-,N/A,,Overcast,290,2012-11-27 22:35:00
4:55 PM,23.0,23.0,100,30.15,10.0,NW,5.8,-,N/A,,Overcast,320,2012-11-27 22:55:00
5:15 PM,23.0,23.0,100,30.15,10.0,NW,8.1,-,N/A,Snow,Light Snow,320,2012-11-27 23:15:00
5:55 PM,23.0,23.0,100,30.15,10.0,WNW,6.9,-,N/A,,Overcast,300,2012-11-27 23:55:00
6:15 PM,23.0,23.0,100,30.16,10.0,WNW,5.8,-,N/A,,Overcast,290,2012-11-28 00:15:00
6:35 PM,21.2,21.2,100,30.16,10.0,WNW,6.9,-,N/A,,Overcast,290,2012-11-28 00:35:00
6:55 PM,21.2,21.2,100,30.16,10.0,NW,8.1,-,N/A,,Overcast,320,2012-11-28 00:55:00
7:15 PM,21.2,21.2,100,30.17,10.0,NW,10.4,-,N/A,,Overcast,320,2012-11-28 01:15:00
7:35 PM,21.2,21.2,100,30.17,10.0,NW,5.8,-,N/A,,Overcast,310,2012-11-28 01:35:00
7:55 PM,21.2,21.2,100,30.16,10.0,NW,6.9,-,N/A,,Overcast,320,2012-11-28 01:55:00
8:15 PM,23.0,23.0,100,30.16,10.0,WNW,6.9,-,N/A,,Overcast,290,2012-11-28 02:15:00
8:35 PM,21.2,21.2,100,30.17,10.0,West,3.5,-,N/A,,Overcast,280,2012-11-28 02:35:00
8:55 PM,21.2,21.2,100,30.17,10.0,West,5.8,-,N/A,,Overcast,280,2012-11-28 02:55:00
9:15 PM,21.2,21.2,100,30.17,10.0,WSW,5.8,-,N/A,,Overcast,250,2012-11-28 03:15:00
9:35 PM,21.2,21.2,100,30.18,10.0,West,5.8,-,N/A,,Overcast,270,2012-11-28 03:35:00
9:55 PM,21.2,21.2,100,30.17,10.0,Calm,Calm,-,N/A,,Overcast,0,2012-11-28 03:55:00
10:15 PM,21.2,21.2,100,30.17,10.0,NW,4.6,-,N/A,,Overcast,310,2012-11-28 04:15:00
10:55 PM,21.2,21.2,100,30.16,8.0,WSW,5.8,-,N/A,,Overcast,240,2012-11-28 04:55:00
11:15 PM,19.4,19.4,100,30.16,5.0,West,5.8,-,N/A,,Overcast,260,2012-11-28 05:15:00
11:55 PM,19.4,19.4,100,30.15,0.8,WSW,4.6,-,N/A,,Overcast,240,2012-11-28 05:55:00